This is the latest recevied weather packets stored in our database for station/object WO4U-13. If no packets are shown the sender has not sent any weather packets the latest 10 day(s).
| Time | Temp. | Humidity | Pressure | Rain* | Wind** | Luminosity | Snow |
|---|---|---|---|---|---|---|---|
| 1787522882 | 24.44° C | 76% | 0 hPa | 0 mm | 0 m/s | - | - |
| 1787522582 | 24.44° C | 75% | 0 hPa | 0 mm | 0 m/s | - | - |
| 1787522282 | 25° C | 72% | 0 hPa | 0 mm | 0 m/s | - | - |
| 1787521984 | 25° C | 75% | 0 hPa | 0 mm | 0 m/s | - | - |
| 1787521682 | 25° C | 76% | 0 hPa | 0 mm | 0 m/s | - | - |
| 1787521382 | 25.56° C | 69% | 0 hPa | 0 mm | 0 m/s | - | - |
| 1787521082 | 25.56° C | 73% | 0 hPa | 0 mm | 0 m/s | - | - |
| 1787520782 | 26.11° C | 70% | 0 hPa | 0 mm | 0 m/s | - | - |
| 1787520482 | 26.67° C | 67% | 0 hPa | 0 mm | 0 m/s | - | - |
| 1787520183 | 26.11° C | 66% | 0 hPa | 0 mm | 0 m/s | - | - |
| 1787519882 | 26.11° C | 65% | 0 hPa | 0 mm | 0 m/s | - | - |
| 1787519582 | 26.11° C | 66% | 0 hPa | 0 mm | 0 m/s | - | - |
| 1787518682 | 25.56° C | 67% | 0 hPa | 0 mm | 0 m/s | - | - |
| 1787518383 | 25.56° C | 70% | 0 hPa | 0 mm | 0 m/s | - | - |
| 1787518084 | 25.56° C | 74% | 0 hPa | 0 mm | 0.45 m/s, 355° | - | - |
| 1787517784 | 25° C | 69% | 0 hPa | 0 mm | 0 m/s | - | - |
| 1787517483 | 25° C | 69% | 0 hPa | 0 mm | 0 m/s | - | - |
| 1787517184 | 25° C | 69% | 0 hPa | 0 mm | 0 m/s | - | - |
| 1787516884 | 25.56° C | 70% | 0 hPa | 0 mm | 0 m/s | - | - |
| 1787516282 | 25.56° C | 67% | 0 hPa | 0 mm | 0 m/s | - | - |
| 1787515382 | 25.56° C | 68% | 0 hPa | 0 mm | 0 m/s | - | - |
| 1787515082 | 26.11° C | 69% | 0 hPa | 0 mm | 0 m/s | - | - |
| 1787514482 | 26.67° C | 66% | 0 hPa | 0 mm | 0 m/s | - | - |
| 1787514182 | 26.11° C | 67% | 0 hPa | 0 mm | 0 m/s | - | - |
| 1787513882 | 25.56° C | 68% | 0 hPa | 0 mm | 0 m/s | - | - |
* Rain latest hour (hover to see other rain measurements)
** Current wind speed in m/s (hover to see current wind gust speed)